| time (UTC) | temp F | wind direction | speed MPH | gust MPH | rain 1hr in | rain 24hr in | rain mn in | humidity % | barometer mb |
| 20260506092624 | 57 | 177 | 1.0 | 3.0 | 0.00 | 0.00 | 0.00 | 86 | 1026.9 |
| 20260506091724 | 57 | 195 | 1.0 | 2.0 | 0.00 | 0.00 | 0.00 | 86 | 1027.0 |
| 20260506090725 | 57 | 186 | 0.0 | 2.0 | 0.00 | 0.00 | 0.00 | 86 | 1027.0 |
| 20260506085823 | 57 | 180 | 1.0 | 2.0 | 0.00 | 0.00 | 0.00 | 85 | 1027.1 |
| 20260506084824 | 57 | 229 | 1.0 | 3.0 | 0.00 | 0.00 | 0.00 | 85 | 1027.3 |
| 20260506083825 | 57 | 205 | 0.0 | 2.0 | 0.00 | 0.00 | 0.00 | 85 | 1027.2 |
| 20260506082826 | 57 | 191 | 2.0 | 3.0 | 0.00 | 0.00 | 0.00 | 84 | 1027.2 |
| 20260506081922 | 57 | 166 | 1.0 | 3.0 | 0.00 | 0.00 | 0.00 | 84 | 1027.4 |
| 20260506073025 | 57 | 164 | 0.0 | 3.0 | 0.00 | 0.00 | 0.00 | 83 | 1027.5 |
| 20260506072124 | 57 | 154 | 1.0 | 2.0 | 0.00 | 0.00 | 0.00 | 83 | 1027.5 |
| 20260506071223 | 57 | 183 | 1.0 | 3.0 | 0.00 | 0.00 | 0.00 | 82 | 1027.6 |
| 20260506070225 | 58 | 203 | 1.0 | 3.0 | 0.00 | 0.00 | 0.00 | 82 | 1027.6 |
| 20260506062424 | 58 | 214 | 0.0 | 4.0 | 0.00 | 0.00 | 0.00 | 81 | 1027.6 |
| 20260506061424 | 58 | 209 | 1.0 | 2.0 | 0.00 | 0.00 | 0.00 | 81 | 1027.4 |
| 20260506060423 | 58 | 179 | 1.0 | 3.0 | 0.00 | 0.00 | 0.00 | 80 | 1027.4 |
| 20260506050723 | 59 | 186 | 3.0 | 6.0 | 0.00 | 0.00 | 0.00 | 78 | 1027.9 |
| 20260506044724 | 59 | 196 | 1.0 | 4.0 | 0.00 | 0.00 | 0.00 | 77 | 1027.8 |
| 20260506042725 | 59 | 208 | 1.0 | 4.0 | 0.00 | 0.00 | 0.00 | 77 | 1027.8 |
| 20260506041724 | 59 | 174 | 3.0 | 5.0 | 0.00 | 0.00 | 0.00 | 77 | 1027.9 |
| 20260506040725 | 59 | 202 | 1.0 | 4.0 | 0.00 | 0.00 | 0.00 | 76 | 1027.9 |
| 20260506035727 | 59 | 175 | 1.0 | 4.0 | 0.00 | 0.00 | 0.00 | 76 | 1027.9 |
| 20260506034826 | 59 | 182 | 1.0 | 3.0 | 0.00 | 0.00 | 0.00 | 76 | 1027.8 |
| 20260506033828 | 59 | 208 | 1.0 | 3.0 | 0.00 | 0.00 | 0.00 | 76 | 1027.8 |
| 20260506032829 | 60 | 242 | 1.0 | 6.0 | 0.00 | 0.00 | 0.00 | 75 | 1027.8 |
| 20260506031928 | 60 | 161 | 1.0 | 4.0 | 0.00 | 0.00 | 0.00 | 74 | 1027.9 |
| 20260506030928 | 60 | 189 | 2.0 | 4.0 | 0.00 | 0.00 | 0.00 | 75 | 1027.9 |
| 20260506030027 | 60 | 159 | 2.0 | 4.0 | 0.00 | 0.00 | 0.00 | 75 | 1027.9 |
| 20260506025028 | 60 | 186 | 1.0 | 3.0 | 0.00 | 0.00 | 0.00 | 75 | 1027.9 |
| 20260506024026 | 60 | 192 | 1.0 | 3.0 | 0.00 | 0.00 | 0.00 | 75 | 1027.8 |
| 20260506023028 | 60 | 202 | 1.0 | 3.0 | 0.00 | 0.00 | 0.00 | 74 | 1027.9 |
| 20260506022928 | 60 | 206 | 1.0 | 4.0 | 0.00 | 0.00 | 0.00 | 74 | 1027.9 |
| 20260506021928 | 60 | 204 | 2.0 | 5.0 | 0.00 | 0.00 | 0.00 | 74 | 1027.9 |
| 20260506021026 | 61 | 203 | 2.0 | 5.0 | 0.00 | 0.00 | 0.00 | 73 | 1027.9 |
| 20260506020026 | 61 | 269 | 1.0 | 3.0 | 0.00 | 0.00 | 0.00 | 72 | 1028.0 |
| 20260506015029 | 62 | 207 | 1.0 | 3.0 | 0.00 | 0.00 | 0.00 | 70 | 1027.9 |
| 20260506014026 | 62 | 209 | 3.0 | 7.0 | 0.00 | 0.00 | 0.00 | 69 | 1027.6 |
| 20260506013028 | 63 | 165 | 2.0 | 6.0 | 0.00 | 0.00 | 0.00 | 68 | 1027.5 |
| 20260506012029 | 63 | 202 | 2.0 | 6.0 | 0.00 | 0.00 | 0.00 | 68 | 1027.4 |
| 20260506010127 | 62 | 181 | 1.0 | 6.0 | 0.00 | 0.00 | 0.00 | 69 | 1027.3 |
| 20260506004227 | 62 | 178 | 2.0 | 4.0 | 0.00 | 0.00 | 0.00 | 69 | 1026.9 |
| 20260506003326 | 62 | 154 | 2.0 | 4.0 | 0.00 | 0.00 | 0.00 | 68 | 1026.8 |
| 20260506002329 | 62 | 158 | 2.0 | 5.0 | 0.00 | 0.00 | 0.00 | 68 | 1026.8 |
| 20260506000527 | 62 | 200 | 2.0 | 5.0 | 0.00 | 0.00 | 0.00 | 68 | 1026.5 |
| 20260505233528 | 63 | 177 | 0.0 | 1.0 | 0.00 | 0.00 | 0.00 | 67 | 1026.3 |
| 20260505232528 | 63 | 220 | 1.0 | 4.0 | 0.00 | 0.00 | 0.00 | 66 | 1026.0 |
| 20260505231527 | 64 | 174 | 1.0 | 3.0 | 0.00 | 0.00 | 0.00 | 65 | 1025.9 |
| 20260505230528 | 64 | 190 | 2.0 | 5.0 | 0.00 | 0.00 | 0.00 | 63 | 1025.6 |
| 20260505225527 | 64 | 199 | 2.0 | 5.0 | 0.00 | 0.00 | 0.00 | 62 | 1025.9 |
| 20260505224528 | 65 | 202 | 0.0 | 4.0 | 0.00 | 0.00 | 0.00 | 62 | 1025.7 |
| 20260505223530 | 65 | 194 | 4.0 | 7.0 | 0.00 | 0.00 | 0.00 | 60 | 1025.8 |
| 20260505221626 | 67 | 182 | 2.0 | 8.0 | 0.00 | 0.00 | 0.00 | 60 | 1025.6 |
| 20260505220628 | 67 | 211 | 3.0 | 8.0 | 0.00 | 0.00 | 0.00 | 60 | 1025.4 |
| 20260505214729 | 67 | 185 | 1.0 | 3.0 | 0.00 | 0.00 | 0.00 | 59 | 1025.0 |
| 20260505211728 | 68 | 145 | 1.0 | 3.0 | 0.00 | 0.00 | 0.00 | 58 | 1025.0 |
| 20260505210730 | 68 | 203 | 1.0 | 4.0 | 0.00 | 0.00 | 0.00 | 58 | 1025.0 |
| 20260505210627 | 68 | 187 | 1.0 | 3.0 | 0.00 | 0.00 | 0.00 | 58 | 1024.9 |
| 20260505203627 | 68 | 225 | 0.0 | 1.0 | 0.00 | 0.00 | 0.00 | 58 | 1025.1 |
| 20260505202627 | 69 | 154 | 1.0 | 4.0 | 0.00 | 0.00 | 0.00 | 57 | 1025.2 |
| 20260505201629 | 70 | 181 | 1.0 | 4.0 | 0.00 | 0.00 | 0.00 | 56 | 1025.2 |
| 20260505200629 | 71 | 202 | 1.0 | 3.0 | 0.00 | 0.00 | 0.00 | 54 | 1025.3 |
| 20260505195628 | 73 | 180 | 0.0 | 1.0 | 0.00 | 0.00 | 0.00 | 52 | 1025.3 |
| 20260505194627 | 74 | 180 | 0.0 | 2.0 | 0.00 | 0.00 | 0.00 | 51 | 1025.1 |
| 20260505193626 | 74 | 180 | 0.0 | 2.0 | 0.00 | 0.00 | 0.00 | 51 | 1025.3 |
| 20260505191628 | 74 | 180 | 0.0 | 2.0 | 0.00 | 0.00 | 0.00 | 51 | 1025.7 |
| 20260505190629 | 74 | 180 | 0.0 | 2.0 | 0.00 | 0.00 | 0.00 | 52 | 1025.9 |
| 20260505185626 | 74 | 180 | 0.0 | 2.0 | 0.00 | 0.00 | 0.00 | 52 | 1025.9 |
| 20260505184628 | 74 | 270 | 0.0 | 0.0 | 0.00 | 0.00 | 0.00 | 51 | 1026.1 |
| 20260505183628 | 75 | 270 | 0.0 | 0.0 | 0.00 | 0.00 | 0.00 | 51 | 1026.2 |
| 20260505182627 | 74 | 270 | 0.0 | 0.0 | 0.00 | 0.00 | 0.00 | 51 | 1026.2 |
| 20260505175727 | 74 | 270 | 0.0 | 1.0 | 0.00 | 0.00 | 0.00 | 52 | 1026.5 |
| 20260505174729 | 74 | 180 | 1.0 | 4.0 | 0.00 | 0.00 | 0.00 | 52 | 1026.5 |
| 20260505173827 | 74 | 180 | 2.0 | 4.0 | 0.00 | 0.00 | 0.00 | 52 | 1026.5 |
| 20260505172927 | 75 | 180 | 1.0 | 4.0 | 0.00 | 0.00 | 0.00 | 52 | 1026.5 |
| 20260505171929 | 75 | 180 | 1.0 | 3.0 | 0.00 | 0.00 | 0.00 | 51 | 1026.7 |
| 20260505171028 | 75 | 180 | 1.0 | 4.0 | 0.00 | 0.00 | 0.00 | 51 | 1026.7 |
| 20260505170126 | 75 | 180 | 1.0 | 3.0 | 0.00 | 0.00 | 0.00 | 51 | 1026.7 |
| 20260505164127 | 76 | 180 | 1.0 | 3.0 | 0.00 | 0.00 | 0.00 | 51 | 1026.8 |
| 20260505163129 | 76 | 180 | 0.0 | 2.0 | 0.00 | 0.00 | 0.00 | 50 | 1026.9 |
| 20260505161127 | 76 | 157 | 0.0 | 1.0 | 0.00 | 0.00 | 0.00 | 51 | 1027.2 |
| 20260505160128 | 76 | 157 | 1.0 | 2.0 | 0.00 | 0.00 | 0.00 | 52 | 1027.0 |
| 20260505153229 | 74 | 157 | 0.0 | 1.0 | 0.00 | 0.00 | 0.00 | 53 | 1027.4 |
| 20260505152327 | 74 | 157 | 0.0 | 3.0 | 0.00 | 0.00 | 0.00 | 53 | 1027.6 |
| 20260505151426 | 74 | 157 | 0.0 | 3.0 | 0.00 | 0.00 | 0.00 | 54 | 1027.7 |
| 20260505150427 | 73 | 157 | 0.0 | 1.0 | 0.00 | 0.00 | 0.00 | 55 | 1027.8 |
| 20260505125026 | 63 | 202 | 0.0 | 1.0 | 0.00 | 0.00 | 0.00 | 71 | 1027.5 |
| 20260505123127 | 61 | 225 | 0.0 | 0.0 | 0.00 | 0.00 | 0.00 | 74 | 1027.7 |
| 20260505120126 | 60 | 180 | 0.0 | 0.0 | 0.00 | 0.00 | 0.00 | 81 | 1027.6 |
| 20260505115129 | 60 | 135 | 0.0 | 0.0 | 0.00 | 0.00 | 0.00 | 83 | 1027.8 |
| 20260505114127 | 58 | 112 | 0.0 | 0.0 | 0.00 | 0.00 | 0.00 | 85 | 1027.9 |
| 20260505113127 | 57 | 112 | 0.0 | 0.0 | 0.00 | 0.00 | 0.00 | 86 | 1028.0 |
| 20260505112129 | 56 | 202 | 0.0 | 0.0 | 0.00 | 0.00 | 0.00 | 87 | 1027.9 |
| 20260505111128 | 56 | 180 | 0.0 | 0.0 | 0.00 | 0.00 | 0.00 | 87 | 1027.7 |
| 20260505101227 | 53 | 247 | 0.0 | 0.0 | 0.00 | 0.00 | 0.00 | 88 | 1026.9 |
| 20260505100228 | 53 | 247 | 0.0 | 0.0 | 0.00 | 0.00 | 0.00 | 88 | 1026.6 |
| 20260505095327 | 53 | 247 | 0.0 | 0.0 | 0.00 | 0.00 | 0.00 | 88 | 1026.6 |
| 20260505094329 | 53 | 197 | 1.0 | 2.0 | 0.00 | 0.00 | 0.00 | 88 | 1026.6 |
| 20260505093428 | 53 | 202 | 0.0 | 0.0 | 0.00 | 0.00 | 0.00 | 87 | 1026.8 |